User: anonymous   Login
Location: Newark
(46.3567°N, 6.1428°E)
Time: 16:25:19
(UTC+00:00)
Language:

KAITUO 1B - Orbit

View from above orbital plane
View from above orbital plane
View from above satellite
View from above satellite

Ground track
Ground track

The orbit data is extracted from the following two-line orbital elements,

1 40912U 15049P   19295.98857321  .00000995  00000-0  49533-4 0  9995
2 40912  97.4507 301.7258 0016527  90.8965 326.3718 15.19813598226497
Epoch (UTC): 22 October 2019 23:43:32
Eccentricity: 0.0016527
inclination: 97.4507°
perigee height: 495 km
apogee height: 518 km
right ascension of ascending node: 301.7258°
argument of perigee: 90.8965°
revolutions per day: 15.19813598
mean anomaly at epoch: 326.3718°
orbit number at epoch: 22649

The dashed part of the orbit path shows where the satellite is in the earth's shadow,  

DLR